Voltar ao catálogo

STARLINK-5352

AtivoComunicaçõesVLEO
NORAD 56426·PAYLOAD·🇺🇸 United States

Lançado May 4, 2023 de Cape Canaveral Space Force Station

Loading…

Próximas Passagens (próximas 24 horas)

TLE

AtualizadoSource: CelesTrak SupGP

Época: Sep 14, 2026, 22:10 UTC

1 56426C 23061BE  26257.92409722 -.00021874  00000+0 -79241-3 0  2578
2 56426  42.9998 191.1812 0001296 246.7413 223.8857 15.27584290    13

Acompanhe STARLINK-5352 em tempo real com AllMySat

Download on the App Store